"Platform","Saginaw Bay ReCON Buoy"
"NDBC ID","45163"
"Latitude (deg)",43.98440
"Longitude (deg)",-83.59753
"Water Depth (m)",12.7
"Sensor Device","AirMar Weather Station Model 200WX"
"Sensor Serial No.","60221354"
"Sensor Height","2.5 meters above water surface"
"Sensor Type","Wind angle relative to sensor"
"Sensor Units","degrees (0 is magnetic North; 90 is East; range is 0 to 360)"
"Measurement","2 minute vector average of data samples taken at 5 second interval"
"Time means","Time at end of averaging period (UTC time zone)"

"Note:","This data was collected for research purposes."
"Note:","Minimal quality checking has been performed so data may contain known or unknown errors."
"Note:","Data provided by NOAA. Please credit NOAA."
"Note:","For more info see www.glerl.noaa.gov/res/recon"

"Time (UTC)","Wind Angle"
"YYYY/MM/DD HH:MM","deg"
2024/05/16 00:04, 339.1973
2024/05/16 00:06, 341.8938
2024/05/16 00:08, 333.1468
2024/05/16 00:10, 335.2621
2024/05/16 00:12, 341.0011
2024/05/16 00:14, 340.4591
2024/05/16 00:16, 339.9763
2024/05/16 00:18, 334.364
2024/05/16 00:20, 340.0928
2024/05/16 00:22, 335.3848
2024/05/16 00:24, 334.5469
2024/05/16 00:26, 337.9568
2024/05/16 00:28, 334.4233
2024/05/16 00:30, 331.3873
2024/05/16 00:32, 329.8425
2024/05/16 00:34, 334.4274
2024/05/16 00:36, 337.8825
2024/05/16 00:38, 336.4966
2024/05/16 00:40, 338.6224
2024/05/16 00:42, 327.244
2024/05/16 00:44, 324.1708
2024/05/16 00:46, 335.59
2024/05/16 00:48, 333.1687
2024/05/16 00:50, 342.4426
2024/05/16 00:52, 334.4832
2024/05/16 00:54, 343.5735
2024/05/16 00:56, 332.6462
2024/05/16 00:58, 336.1203
2024/05/16 01:00, 340.0984
2024/05/16 01:02, 333.3836
2024/05/16 01:04, 321.0993
2024/05/16 01:06, 324.6577
2024/05/16 01:08, 322.6617
2024/05/16 01:10, 330.9848
2024/05/16 01:12, 335.0701
2024/05/16 01:14, 347.488
2024/05/16 01:16, 322.0558
2024/05/16 01:18, 301.7448
2024/05/16 01:20, 258.6437
2024/05/16 01:22, 309.4542
2024/05/16 01:24, 237.8943
2024/05/16 01:26, 234.3832
2024/05/16 01:28, 237.8015
2024/05/16 01:30, 205.092
2024/05/16 01:32, 206.7553
2024/05/16 01:34, 233.0076
2024/05/16 01:36, 231.7162
2024/05/16 01:38, 239.618
2024/05/16 01:40, 229.307
2024/05/16 01:42, 273.1212
2024/05/16 01:44, 287.754
2024/05/16 01:46, 279.7667
2024/05/16 01:48, 318.844
2024/05/16 01:50, 242.9993
2024/05/16 01:52, 308.3491
2024/05/16 01:54, 246.0707
2024/05/16 01:56, 274.6505
2024/05/16 01:58, 319.7641
2024/05/16 02:00, 296.4853
2024/05/16 02:02, 277.9284
2024/05/16 02:04, 279.2094
2024/05/16 02:06, 293.8097
2024/05/16 02:08, 291.6009
2024/05/16 02:10, 298.6745
2024/05/16 02:12, 317.2259
2024/05/16 02:14, 307.9853
2024/05/16 02:16, 310.759
2024/05/16 02:18, 327.5227
2024/05/16 02:20, 331.1698
2024/05/16 02:22, 332.2158
2024/05/16 02:24, 309.0907
2024/05/16 02:26, 321.7061
2024/05/16 02:28, 309.8706
2024/05/16 02:30, 312.2334
2024/05/16 02:32, 298.4883
2024/05/16 02:34, 315.5406
2024/05/16 02:36, 322.2109
2024/05/16 02:38, 302.5638
2024/05/16 02:40, 311.8633
2024/05/16 02:42, 323.5247
2024/05/16 02:44, 324.5255
2024/05/16 02:46, 319.373
2024/05/16 02:48, 320.8939
2024/05/16 02:50, 315.9745
2024/05/16 02:52, 312.4824
2024/05/16 02:54, 318.9481
2024/05/16 02:56, 329.4999
2024/05/16 02:58, 314.1931
2024/05/16 03:00, 321.9115
2024/05/16 03:02, 319.6099
2024/05/16 03:04, 309.3078
2024/05/16 03:06, 323.8734
2024/05/16 03:08, 315.5973
2024/05/16 03:10, 326.5016
2024/05/16 03:12, 321.229
2024/05/16 03:14, 316.0096
2024/05/16 03:16, 328.8322
2024/05/16 03:18, 326.5214
2024/05/16 03:20, 329.8912
2024/05/16 03:22, 324.4533
2024/05/16 03:24, 326.5941
2024/05/16 03:26, 333.5641
2024/05/16 03:28, 324.8798
2024/05/16 03:30, 330.2838
2024/05/16 03:32, 320.6718
2024/05/16 03:34, 327.5191
2024/05/16 03:36, 323.2049
2024/05/16 03:38, 312.6215
2024/05/16 03:40, 315.0803
2024/05/16 03:42, 323.5638
2024/05/16 03:44, 325.7526
2024/05/16 03:46, 326.9287
2024/05/16 03:48, 324.2391
2024/05/16 03:50, 321.7097
2024/05/16 03:52, 323.0215
2024/05/16 03:54, 318.2684
2024/05/16 03:56, 316.3755
2024/05/16 03:58, 318.825
2024/05/16 04:00, 309.3284
2024/05/16 04:02, 309.5206
2024/05/16 04:04, 311.015
2024/05/16 04:06, 300.4973
2024/05/16 04:08, 312.166
2024/05/16 04:10, 302.207
2024/05/16 04:12, 307.9631
2024/05/16 04:14, 312.184
2024/05/16 04:16, 316.1041
2024/05/16 04:18, 295.7858
2024/05/16 04:20, 293.6396
2024/05/16 04:22, 307.0662
2024/05/16 04:24, 316.743
2024/05/16 04:26, 301.053
2024/05/16 04:28, 306.8349
2024/05/16 04:30, 313.8981
2024/05/16 04:32, 303.7784
2024/05/16 04:34, 317.1137
2024/05/16 04:36, 308.6746
2024/05/16 04:38, 288.7864
2024/05/16 04:40, 292.2905
2024/05/16 04:42, 286.638
2024/05/16 04:44, 311.7498
2024/05/16 04:46, 303.6701
2024/05/16 04:48, 308.7653
2024/05/16 04:50, 312.2361
2024/05/16 04:52, 314.7549
2024/05/16 04:54, 317.3567
2024/05/16 04:56, 310.6846
2024/05/16 04:58, 312.2397
2024/05/16 05:00, 312.2662
2024/05/16 05:02, 307.4208
2024/05/16 05:04, 315.2946
2024/05/16 05:06, 320.3582
2024/05/16 05:08, 305.49
2024/05/16 05:10, 314.4167
2024/05/16 05:12, 317.7415
2024/05/16 05:14, 303.0318
2024/05/16 05:16, 302.9785
2024/05/16 05:18, 281.1868
2024/05/16 05:20, 297.7048
2024/05/16 05:22, 310.0368
2024/05/16 05:24, 322.8203
2024/05/16 05:26, 314.3627
2024/05/16 05:28, 313.5023
2024/05/16 05:30, 312.8773
2024/05/16 05:32, 312.3729
2024/05/16 05:34, 315.9996
2024/05/16 05:36, 305.6344
2024/05/16 05:38, 318.6769
2024/05/16 05:40, 314.6529
2024/05/16 05:42, 311.4832
2024/05/16 05:44, 296.1
2024/05/16 05:46, 281.7903
2024/05/16 05:48, 283.6395
2024/05/16 05:50, 288.4502
2024/05/16 05:52, 287.6761
2024/05/16 05:54, 306.6277
2024/05/16 05:56, 292.0243
2024/05/16 05:58, 296.1274
2024/05/16 06:00, 285.7667
2024/05/16 06:02, 278.3978
2024/05/16 06:04, 318.1463
2024/05/16 06:06, 307.799
2024/05/16 06:08, 285.7527
2024/05/16 06:10, 314.6681
2024/05/16 06:12, 313.5753
2024/05/16 06:14, 301.7158
2024/05/16 06:16, 292.0972
2024/05/16 06:18, 298.0566
2024/05/16 06:20, 294.0598
2024/05/16 06:22, 303.9705
2024/05/16 06:24, 315.3247
2024/05/16 06:26, 317.5634
2024/05/16 06:28, 314.8855
2024/05/16 06:30, 307.3615
2024/05/16 06:32, 318.993
2024/05/16 06:34, 315.3708
2024/05/16 06:36, 295.9308
2024/05/16 06:38, 300.8566
2024/05/16 06:40, 306.1088
2024/05/16 06:42, 304.534
2024/05/16 06:44, 310.3502
2024/05/16 06:46, 313.4903
2024/05/16 06:48, 300.9611
2024/05/16 06:50, 271.6539
2024/05/16 06:52, 264.7063
2024/05/16 06:54, 282.9651
2024/05/16 06:56, 268.389
2024/05/16 06:58, 269.3546
2024/05/16 07:00, 260.5869
2024/05/16 07:02, 268.3445
2024/05/16 07:04, 250.1384
2024/05/16 07:06, 199.303
2024/05/16 07:08, 208.151
2024/05/16 07:10, 232.9089
2024/05/16 07:12, 233.4496
2024/05/16 07:14, 228.4106
2024/05/16 07:16, 202.8015
2024/05/16 07:18, 205.7491
2024/05/16 07:20, 207.6879
2024/05/16 07:22, 211.9106
2024/05/16 07:24, 217.804
2024/05/16 07:26, 214.9878
2024/05/16 07:28, 218.511
2024/05/16 07:30, 224.2444
2024/05/16 07:32, 207.4466
2024/05/16 07:34, 223.6467
2024/05/16 07:36, 212.26
2024/05/16 07:38, 220.5788
2024/05/16 07:40, 233.0546
2024/05/16 07:42, 220.4166
2024/05/16 07:44, 247.7505
2024/05/16 07:46, 295.1586
2024/05/16 07:48, 278.9355
2024/05/16 07:50, 294.9753
2024/05/16 07:52, 317.7159
2024/05/16 07:54, 299.6635
2024/05/16 07:56, 319.1937
2024/05/16 07:58, 320.6602
2024/05/16 08:00, 335.2894
2024/05/16 08:02, 340.6798
2024/05/16 08:04, 322.0392
2024/05/16 08:06, 313.8141
2024/05/16 08:08, 312.9749
2024/05/16 08:10, 316.7832
2024/05/16 08:12, 300.0057
2024/05/16 08:14, 288.8819
2024/05/16 08:16, 312.6874
2024/05/16 08:18, 318.4097
2024/05/16 08:20, 321.0061
2024/05/16 08:22, 327.582
2024/05/16 08:24, 321.1559
2024/05/16 08:26, 307.5536
2024/05/16 08:28, 319.274
2024/05/16 08:30, 315.8204
2024/05/16 08:32, 314.6126
2024/05/16 08:34, 313.0384
2024/05/16 08:36, 318.1774
2024/05/16 08:38, 319.5471
2024/05/16 08:40, 319.4549
2024/05/16 08:42, 318.6651
2024/05/16 08:44, 317.2665
2024/05/16 08:46, 317.6602
2024/05/16 08:48, 319.8405
2024/05/16 08:50, 314.817
2024/05/16 08:52, 321.5196
2024/05/16 08:54, 321.0312
2024/05/16 08:56, 321.4408
2024/05/16 08:58, 297.9944
2024/05/16 09:00, 280.4171
2024/05/16 09:02, 294.6486
2024/05/16 09:04, 273.795
2024/05/16 09:06, 301.5385
2024/05/16 09:08, 289.2034
2024/05/16 09:10, 304.0598
2024/05/16 09:12, 287.2261
2024/05/16 09:14, 304.1291
2024/05/16 09:16, 308.17
2024/05/16 09:18, 310.6662
2024/05/16 09:20, 311.7347
2024/05/16 09:22, 309.5702
2024/05/16 09:24, 311.7698
2024/05/16 09:26, 301.9179
2024/05/16 09:28, 311.85
2024/05/16 09:30, 306.811
2024/05/16 09:32, 309.1423
2024/05/16 09:34, 294.0971
2024/05/16 09:36, 274.1834
2024/05/16 09:38, 274.8875
2024/05/16 09:40, 296.8805
2024/05/16 09:42, 282.5524
2024/05/16 09:44, 293.2664
2024/05/16 09:46, 292.6583
2024/05/16 09:48, 300.0783
2024/05/16 09:50, 307.9567
2024/05/16 09:52, 293.315
2024/05/16 09:54, 295.4662
2024/05/16 09:56, 302.5205
2024/05/16 09:58, 264.0422
2024/05/16 10:00, 208.2011
2024/05/16 10:02, 224.6552
2024/05/16 10:04, 211.5484
2024/05/16 10:06, 201.282
2024/05/16 10:08, 240.8984
2024/05/16 10:10, 278.2118
2024/05/16 10:12, 270.6982
2024/05/16 10:14, 317.2588
2024/05/16 10:16, 318.6939
2024/05/16 10:18, 321.9274
2024/05/16 10:20, 321.0242
2024/05/16 10:22, 39.88155
2024/05/16 10:24, 56.65113
2024/05/16 10:26, 20.03321
2024/05/16 10:28, 9.615838
2024/05/16 10:30, 254.2182
2024/05/16 10:32, 69.07118
2024/05/16 10:34, 72.24626
2024/05/16 10:36, 75.99754
2024/05/16 10:38, 74.98931
2024/05/16 10:40, 77.0976
2024/05/16 10:42, 79.63374
2024/05/16 10:44, 79.79654
2024/05/16 10:46, 80.98106
2024/05/16 10:48, 81.05723
2024/05/16 10:50, 79.23086
2024/05/16 10:52, 82.35983
2024/05/16 10:54, 80.71632
2024/05/16 10:56, 80.81629
2024/05/16 10:58, 81.5794
2024/05/16 11:00, 82.13733
2024/05/16 11:02, 81.32574
2024/05/16 11:04, 79.87942
2024/05/16 11:06, 78.1041
2024/05/16 11:08, 79.46342
2024/05/16 11:10, 77.00373
2024/05/16 11:12, 80.82414
2024/05/16 11:14, 80.47879
2024/05/16 11:16, 75.33453
2024/05/16 11:18, 70.07156
2024/05/16 11:20, 37.3242
2024/05/16 11:22, 40.3736
2024/05/16 11:24, 4.000003
2024/05/16 11:26, 54.70771
2024/05/16 11:28, 64.74805
2024/05/16 11:30, 40.82427
2024/05/16 11:32, 45.56666
2024/05/16 11:34, 51.885
2024/05/16 11:36, 48.69128
2024/05/16 11:38, 46.77576
2024/05/16 11:40, 50.88398
2024/05/16 11:42, 41.81764
2024/05/16 11:44, 73.58476
2024/05/16 11:46, 74.75698
2024/05/16 11:48, 77.88149
2024/05/16 11:50, 80.9579
2024/05/16 11:52, 77.85931
2024/05/16 11:54, 80.23934
2024/05/16 11:56, 78.37623
2024/05/16 11:58, 82.29023
2024/05/16 12:00, 84.34692
2024/05/16 12:02, 81.73902
2024/05/16 12:04, 77.53711
2024/05/16 12:06, 78.67468
2024/05/16 12:08, 78.63046
2024/05/16 12:10, 78.9686
2024/05/16 12:12, 78.94449
2024/05/16 12:14, 79.3207
2024/05/16 12:16, 51.4521
2024/05/16 12:18, 69.90346
2024/05/16 12:20, 33.93761
2024/05/16 12:22, 41.98113
2024/05/16 12:24, 75.51252
2024/05/16 12:26, 76.59985
2024/05/16 12:28, 75.69234
2024/05/16 12:30, 78.37558
2024/05/16 12:32, 84.52393
2024/05/16 12:34, 84.46441
2024/05/16 12:36, 79.17992
2024/05/16 12:38, 79.53105
2024/05/16 12:40, 78.55176
2024/05/16 12:42, 79.77633
2024/05/16 12:44, 79.36346
2024/05/16 12:46, 76.5459
2024/05/16 12:48, 76.25852
2024/05/16 12:50, 76.88574
2024/05/16 12:52, 65.15364
2024/05/16 12:54, 79.14529
2024/05/16 12:56, 78.52576
2024/05/16 12:58, 77.16049
2024/05/16 13:00, 79.83919
2024/05/16 13:02, 317.3978
2024/05/16 13:04, 332.9435
2024/05/16 13:06, 332.4904
2024/05/16 13:08, 343.6052
2024/05/16 13:10, 3.029707
2024/05/16 13:12, 32.35369
2024/05/16 13:14, 359.1898
2024/05/16 13:16, 356.2206
2024/05/16 13:18, 350.8859
2024/05/16 13:20, 52.69486
2024/05/16 13:22, 70.04771
2024/05/16 13:24, 331.5244
2024/05/16 13:26, 354.5578
2024/05/16 13:28, 330.8312
2024/05/16 13:30, 348.8474
2024/05/16 13:32, 321.6728
2024/05/16 13:34, 341.7472
2024/05/16 13:36, 316.5131
2024/05/16 13:38, 332.2476
2024/05/16 13:40, 3.141293
2024/05/16 13:42, 56.2687
2024/05/16 13:44, 14.05181
2024/05/16 13:46, 57.75612
2024/05/16 13:48, 86.27799
2024/05/16 13:50, 302.9922
2024/05/16 13:52, 284.3769
2024/05/16 13:54, 64.63708
2024/05/16 13:56, 2.429002
2024/05/16 13:58, 77.69231
2024/05/16 14:00, 89.85252
2024/05/16 14:02, 64.89633
2024/05/16 14:04, 85.30738
2024/05/16 14:06, 80.99819
2024/05/16 14:08, 78.32978
2024/05/16 14:10, 86.39181
2024/05/16 14:12, 83.33694
2024/05/16 14:14, 93.93085
2024/05/16 14:16, 91.35747
2024/05/16 14:18, 77.61016
2024/05/16 14:20, 65.16905
2024/05/16 14:22, 90.59418
2024/05/16 14:24, 82.26472
2024/05/16 14:26, 69.82322
2024/05/16 14:28, 71.57894
2024/05/16 14:30, 78.06704
2024/05/16 14:32, 81.65456
2024/05/16 14:34, 95.87862
2024/05/16 14:36, 68.2517
2024/05/16 14:38, 67.90058
2024/05/16 14:40, 86.82784
2024/05/16 14:42, 87.17785
2024/05/16 14:44, 160.2193
2024/05/16 14:46, 147.6309
2024/05/16 14:48, 260.36
2024/05/16 14:50, 184.766
2024/05/16 14:52, 211.7981
2024/05/16 14:54, 229.0269
2024/05/16 14:56, 299.8565
2024/05/16 14:58, 252.3826
2024/05/16 15:00, 192.7485
2024/05/16 15:02, 335.3248
2024/05/16 15:04, 115.2253
2024/05/16 15:06, 65.93644
2024/05/16 15:08, 57.34084
2024/05/16 15:10, 141.8433
2024/05/16 15:12, 159.0018
2024/05/16 15:14, 158.6091
2024/05/16 15:16, 161.1281
2024/05/16 15:18, 161.1371
2024/05/16 15:20, 158.9139
2024/05/16 15:22, 160.8425
2024/05/16 15:24, 157.5503
2024/05/16 15:26, 164.7112
2024/05/16 15:28, 159.7582
2024/05/16 15:30, 164.9759
2024/05/16 15:32, 158.6533
2024/05/16 15:34, 162.143
2024/05/16 15:36, 162.9573
2024/05/16 15:38, 163.8015
2024/05/16 15:40, 161.6043
2024/05/16 15:42, 159.9978
2024/05/16 15:44, 164.5589
2024/05/16 15:46, 163.45
2024/05/16 15:48, 163.9435
2024/05/16 15:50, 163.6453
2024/05/16 15:52, 165.4709
2024/05/16 15:54, 162.8237
2024/05/16 15:56, 162.1713
2024/05/16 15:58, 163.1128
2024/05/16 16:00, 163.5181
2024/05/16 16:02, 163.9537
2024/05/16 16:04, 162.4633
2024/05/16 16:06, 163.6695
2024/05/16 16:08, 159.3269
2024/05/16 16:10, 160.2402
2024/05/16 16:12, 153.1931
2024/05/16 16:14, 152.5247
2024/05/16 16:16, 154.4632
2024/05/16 16:18, 155.8816
2024/05/16 16:20, 156.0718
2024/05/16 16:22, 151.4342
2024/05/16 16:24, 153.258
2024/05/16 16:26, 153.8648
2024/05/16 16:28, 152.7123
2024/05/16 16:30, 150.621
2024/05/16 16:32, 150.8878
2024/05/16 16:34, 148.5374
2024/05/16 16:36, 148.1994
2024/05/16 16:38, 141.653
2024/05/16 16:40, 144.1241
2024/05/16 16:42, 135.5318
2024/05/16 16:44, 151.872
2024/05/16 16:46, 143.0791
2024/05/16 16:48, 84.33255
2024/05/16 16:50, 56.37229
2024/05/16 16:52, 50.63466
2024/05/16 16:54, 53.09775
2024/05/16 16:56, 55.98703
2024/05/16 16:58, 50.27253
2024/05/16 17:00, 50.38671
2024/05/16 17:02, 50.48511
2024/05/16 17:04, 49.0563
2024/05/16 17:06, 48.8967
2024/05/16 17:08, 49.71228
2024/05/16 17:10, 48.5459
2024/05/16 17:12, 55.69432
2024/05/16 17:14, 52.87769
2024/05/16 17:16, 67.27475
2024/05/16 17:18, 148.6532
2024/05/16 17:20, 152.5753
2024/05/16 17:22, 150.0828
2024/05/16 17:24, 152.4374
2024/05/16 17:26, 149.9777
2024/05/16 17:28, 151.6019
2024/05/16 17:30, 156.9228
2024/05/16 17:32, 155.9002
2024/05/16 17:34, 157.5798
2024/05/16 17:36, 154.1724
2024/05/16 17:38, 156.5767
2024/05/16 17:40, 152.5146
2024/05/16 17:42, 155.0643
2024/05/16 17:44, 154.6285
2024/05/16 17:46, 159.1399
2024/05/16 17:48, 154.0585
2024/05/16 17:50, 155.851
2024/05/16 17:52, 152.6131
2024/05/16 17:54, 150.1703
2024/05/16 17:56, 149.2164
2024/05/16 17:58, 152.3329
2024/05/16 18:00, 151.3115
2024/05/16 18:02, 148.4359
2024/05/16 18:04, 150.8076
2024/05/16 18:06, 153.4815
2024/05/16 18:08, 153.4487
2024/05/16 18:10, 154.2691
2024/05/16 18:12, 150.3662
2024/05/16 18:14, 154.99
2024/05/16 18:16, 152.6755
2024/05/16 18:18, 156.291
2024/05/16 18:20, 152.1311
2024/05/16 18:22, 152.5897
2024/05/16 18:24, 149.9565
2024/05/16 18:26, 148.0398
2024/05/16 18:28, 149.5394
2024/05/16 18:30, 147.2402
2024/05/16 18:32, 74.65366
2024/05/16 18:34, 62.33649
2024/05/16 18:36, 62.43792
2024/05/16 18:38, 54.05547
2024/05/16 18:40, 53.26696
2024/05/16 18:42, 52.00731
2024/05/16 18:44, 53.43491
2024/05/16 18:46, 51.10384
2024/05/16 18:48, 59.00227
2024/05/16 18:50, 55.23784
2024/05/16 18:52, 54.99886
2024/05/16 18:54, 54.62094
2024/05/16 18:56, 56.15501
2024/05/16 18:58, 49.0157
2024/05/16 19:00, 50.00486
2024/05/16 19:02, 51.39441
2024/05/16 19:04, 49.06721
2024/05/16 19:06, 51.38252
2024/05/16 19:08, 54.07134
2024/05/16 19:10, 53.86722
2024/05/16 19:12, 138.1584
2024/05/16 19:14, 155.19
2024/05/16 19:16, 157.6572
2024/05/16 19:18, 157.3634
2024/05/16 19:20, 153.5044
2024/05/16 19:22, 154.4612
2024/05/16 19:24, 153.2582
2024/05/16 19:26, 152.6492
2024/05/16 19:28, 152.2853
2024/05/16 19:30, 151.9233
2024/05/16 19:32, 151.8493
2024/05/16 19:34, 152.4305
2024/05/16 19:36, 152.4107
2024/05/16 19:38, 153.7809
2024/05/16 19:40, 155.0486
2024/05/16 19:42, 155.3555
2024/05/16 19:44, 155.3246
2024/05/16 19:46, 155.0169
2024/05/16 19:48, 154.0751
2024/05/16 19:50, 160.0636
2024/05/16 19:52, 160.5609
2024/05/16 19:54, 156.252
2024/05/16 19:56, 157.6734
2024/05/16 19:58, 158.4901
2024/05/16 20:00, 157.4837
2024/05/16 20:02, 156.2361
2024/05/16 20:04, 162.2637
2024/05/16 20:06, 157.9045
2024/05/16 20:08, 161.1309
2024/05/16 20:10, 157.3228
2024/05/16 20:12, 152.3694
2024/05/16 20:14, 156.3072
2024/05/16 20:16, 153.6408
2024/05/16 20:18, 160.7715
2024/05/16 20:20, 160.301
2024/05/16 20:22, 159.5355
2024/05/16 20:24, 159.8413
2024/05/16 20:26, 158.4407
2024/05/16 20:28, 160.6765
2024/05/16 20:30, 159.8601
2024/05/16 20:32, 158.0557
2024/05/16 20:34, 156.8035
2024/05/16 20:36, 156.4281
2024/05/16 20:38, 154.8035
2024/05/16 20:40, 157.9218
2024/05/16 20:42, 160.5227
2024/05/16 20:44, 158.3711
2024/05/16 20:46, 156.7244
2024/05/16 20:48, 156.0467
2024/05/16 20:50, 155.4448
2024/05/16 20:52, 157.965
2024/05/16 20:54, 158.6678
2024/05/16 20:56, 157.1827
2024/05/16 20:58, 157.6987
2024/05/16 21:00, 159.0576
2024/05/16 21:02, 156.3798
2024/05/16 21:04, 159.4316
2024/05/16 21:06, 160.9756
2024/05/16 21:08, 161.1419
2024/05/16 21:10, 160.1108
2024/05/16 21:12, 160.1259
2024/05/16 21:14, 156.394
2024/05/16 21:16, 159.0145
2024/05/16 21:18, 159.2151
2024/05/16 21:20, 158.6224
2024/05/16 21:22, 158.3733
2024/05/16 21:24, 158.1346
2024/05/16 21:26, 158.3212
2024/05/16 21:28, 159.2776
2024/05/16 21:30, 158.2903
2024/05/16 21:32, 158.069
2024/05/16 21:34, 156.3266
2024/05/16 21:36, 152.5333
2024/05/16 21:38, 152.8272
2024/05/16 21:40, 153.0127
2024/05/16 21:42, 153.0158
2024/05/16 21:44, 152.2369
2024/05/16 21:46, 152.8001
2024/05/16 21:48, 148.9922
2024/05/16 21:50, 148.558
2024/05/16 21:52, 153.086
2024/05/16 21:54, 152.6601
2024/05/16 21:56, 154.4339
2024/05/16 21:58, 155.5321
2024/05/16 22:00, 153.4666
2024/05/16 22:02, 157.0379
2024/05/16 22:04, 158.6897
2024/05/16 22:06, 157.2354
2024/05/16 22:08, 157.9925
2024/05/16 22:10, 160.4983
2024/05/16 22:12, 159.2308
2024/05/16 22:14, 159.0675
2024/05/16 22:16, 158.46
2024/05/16 22:18, 162.5185
2024/05/16 22:20, 157.261
2024/05/16 22:22, 160.7772
2024/05/16 22:24, 160.1085
2024/05/16 22:26, 160.585
2024/05/16 22:28, 157.3144
2024/05/16 22:30, 159.622
2024/05/16 22:32, 159.7531
2024/05/16 22:34, 165.8176
2024/05/16 22:36, 164.0767
2024/05/16 22:38, 166.7855
2024/05/16 22:40, 165.4247
2024/05/16 22:42, 165.1294
2024/05/16 22:44, 168.0891
2024/05/16 22:46, 167.2379
2024/05/16 22:48, 165.0212
2024/05/16 22:50, 166.5698
2024/05/16 22:52, 162.6123
2024/05/16 22:54, 164.1405
2024/05/16 22:56, 165.0967
2024/05/16 22:58, 161.9718
2024/05/16 23:00, 164.0386
2024/05/16 23:02, 165.8331
2024/05/16 23:04, 163.7422
2024/05/16 23:06, 166.9145
2024/05/16 23:08, 165.1261
2024/05/16 23:10, 164.4874
2024/05/16 23:12, 164.9033
2024/05/16 23:14, 164.2354
2024/05/16 23:16, 165.8064
2024/05/16 23:18, 162.7335
2024/05/16 23:20, 164.8288
2024/05/16 23:22, 162.9846
2024/05/16 23:24, 163.7194
2024/05/16 23:26, 162.828
2024/05/16 23:28, 161.4009
2024/05/16 23:30, 161.8293
2024/05/16 23:32, 160.3149
2024/05/16 23:34, 161.7608
2024/05/16 23:36, 159.4509
2024/05/16 23:38, 159.3131
2024/05/16 23:40, 156.0546
2024/05/16 23:42, 158.2965
2024/05/16 23:44, 155.1662
2024/05/16 23:46, 160.098
2024/05/16 23:48, 165.5677
2024/05/16 23:50, 165.3888
2024/05/16 23:52, 167.0519
2024/05/16 23:54, 164.2469
2024/05/16 23:56, 164.7269
2024/05/16 23:58, 167.0842
2024/05/17 00:00, 164.0514
2024/05/17 00:02, 164.2416
2024/05/17 00:04, 166.0367
2024/05/17 00:06, 163.7376
2024/05/17 00:08, 159.1771
2024/05/17 00:10, 161.3331
2024/05/17 00:12, 163.0757
2024/05/17 00:14, 159.0321
2024/05/17 00:16, 161.2885
2024/05/17 00:18, 164.163
2024/05/17 00:20, 162.0385
2024/05/17 00:22, 163.4191
2024/05/17 00:24, 161.1692
2024/05/17 00:26, 160.4894
2024/05/17 00:28, 156.9459
2024/05/17 00:30, 159.539
2024/05/17 00:32, 158.4168
2024/05/17 00:34, 154.5904
2024/05/17 00:36, 150.162
2024/05/17 00:38, 149.8911
2024/05/17 00:40, 154.0884
2024/05/17 00:42, 156.8075
2024/05/17 00:44, 158.1463
2024/05/17 00:46, 150.487
2024/05/17 00:48, 152.6646
2024/05/17 00:50, 154.2879
2024/05/17 00:52, 158.7921
2024/05/17 00:54, 162.8329
2024/05/17 00:56, 162.9446
2024/05/17 00:58, 157.907
2024/05/17 01:00, 160.4536
2024/05/17 01:02, 163.5765
2024/05/17 01:04, 162.8978
2024/05/17 01:06, 162.0107
2024/05/17 01:08, 165.8484
2024/05/17 01:10, 163.3064
2024/05/17 01:12, 166.3931
2024/05/17 01:14, 167.6644
2024/05/17 01:16, 165.8618
2024/05/17 01:18, 166.9444
2024/05/17 01:20, 160.8787
2024/05/17 01:22, 162.6966
2024/05/17 01:24, 160.3626
2024/05/17 01:26, 163.6737
2024/05/17 01:28, 163.8525
2024/05/17 01:30, 166.2481
2024/05/17 01:32, 161.365
2024/05/17 01:34, 158.3376
2024/05/17 01:36, 161.143
2024/05/17 01:38, 160.4979
2024/05/17 01:40, 162.6229
2024/05/17 01:42, 158.948
2024/05/17 01:44, 157.0196
2024/05/17 01:46, 156.9046
2024/05/17 01:48, 161.5051
2024/05/17 01:50, 156.914
2024/05/17 01:52, 159.5325
2024/05/17 01:54, 155.6761
2024/05/17 01:56, 151.3225
2024/05/17 01:58, 156.5148
2024/05/17 02:00, 162.9778
2024/05/17 02:02, 163.7926
2024/05/17 02:04, 163.4201
2024/05/17 02:06, 163.2542
2024/05/17 02:08, 167.6647
2024/05/17 02:10, 168.1646
2024/05/17 02:12, 164.3094
2024/05/17 02:14, 165.1241
2024/05/17 02:16, 168.8129
2024/05/17 02:18, 164.197
2024/05/17 02:20, 166.3411
2024/05/17 02:22, 166.4997
2024/05/17 02:24, 168.024
2024/05/17 02:26, 166.1799
2024/05/17 02:28, 168.8274
2024/05/17 02:30, 169.258
2024/05/17 02:32, 170.3232
2024/05/17 02:34, 170.8484
2024/05/17 02:36, 171.1452
2024/05/17 02:38, 170.5928
2024/05/17 02:40, 171.3912
2024/05/17 02:42, 169.625
2024/05/17 02:44, 170.9124
2024/05/17 02:46, 169.422
2024/05/17 02:48, 168.9459
2024/05/17 02:50, 170.9512
2024/05/17 02:52, 170.5077
2024/05/17 02:54, 168.9614
2024/05/17 02:56, 168.9942
2024/05/17 02:58, 170.8941
2024/05/17 03:00, 167.9127
2024/05/17 03:02, 170.4483
2024/05/17 03:04, 169.7373
2024/05/17 03:06, 169.7448
2024/05/17 03:08, 169.5038
2024/05/17 03:10, 166.2052
2024/05/17 03:12, 170.487
2024/05/17 03:14, 169.8503
2024/05/17 03:16, 168.8038
2024/05/17 03:18, 171.7878
2024/05/17 03:20, 171.1946
2024/05/17 03:22, 168.6799
2024/05/17 03:24, 167.9841
2024/05/17 03:26, 169.3455
2024/05/17 03:28, 165.7992
2024/05/17 03:30, 163.3548
2024/05/17 03:32, 164.4701
2024/05/17 03:34, 166.2341
2024/05/17 03:36, 165.8889
2024/05/17 03:38, 165.2807
2024/05/17 03:40, 166.1455